WMT426 LRIA-LCLK

Flight info

Callsign WMT426
Flight time 2h 14m
Altitude 37000
Route ABOLO T74 GUXVA DCT DINRO N616 RIXEN UG1 IST UT35 AYT UA16 TOMBI M855 DASNI M601 BONEK
Aircraft A320/M-SDE3FGHIRWY/LB1

Departure

Time 2026-04-15 11:53
Airport Iaşi International Airport (LRIA)

Arrival

Time 2026-04-15 14:07
Airport Larnaca International Airport (LCLK)
Time Latitude Longitude Altitude Speed Heading
2026-04-15 11:43 47.17645 27.61897 398 ft 0 kts 274°
2026-04-15 11:45 47.17645 27.61898 398 ft 1 kts 274°
2026-04-15 11:46 47.17645 27.61934 371 ft 4 kts 249°
2026-04-15 11:46 47.17660 27.61963 372 ft 4 kts 199°
2026-04-15 11:46 47.17681 27.61964 372 ft 1 kts 154°
2026-04-15 11:49 47.17680 27.61965 372 ft 1 kts 154°
2026-04-15 11:49 47.17665 27.61975 372 ft 4 kts 154°
2026-04-15 11:49 47.17630 27.62000 372 ft 7 kts 154°
2026-04-15 11:49 47.17574 27.62042 372 ft 11 kts 152°
2026-04-15 11:50 47.17502 27.62095 372 ft 13 kts 151°
2026-04-15 11:50 47.17420 27.62169 371 ft 15 kts 148°
2026-04-15 11:50 47.17322 27.62256 371 ft 18 kts 149°
2026-04-15 11:50 47.17283 27.62425 358 ft 20 kts 63°
2026-04-15 11:51 47.17327 27.62537 357 ft 15 kts 59°
2026-04-15 11:51 47.17334 27.62704 350 ft 20 kts 136°
2026-04-15 11:51 47.17217 27.62819 336 ft 20 kts 137°
2026-04-15 11:51 47.17128 27.62908 331 ft 6 kts 205°
2026-04-15 11:52 47.17128 27.62896 332 ft 0 kts 293°
2026-04-15 11:52 47.17144 27.62881 336 ft 11 kts 325°
2026-04-15 11:52 47.17458 27.62601 356 ft 91 kts 328°
2026-04-15 11:52 47.18181 27.61958 383 ft 149 kts 329°
2026-04-15 11:53 47.19133 27.61121 920 ft 162 kts 331°
2026-04-15 11:53 47.20148 27.60330 1723 ft 169 kts 332°
2026-04-15 11:53 47.21241 27.59518 2192 ft 186 kts 333°
2026-04-15 11:53 47.22468 27.58614 2504 ft 208 kts 333°
2026-04-15 11:54 47.23752 27.57598 2836 ft 232 kts 322°
2026-04-15 11:54 47.24648 27.55786 3420 ft 241 kts 283°
2026-04-15 11:54 47.24588 27.53363 4241 ft 242 kts 246°
2026-04-15 11:54 47.23511 27.51497 5102 ft 246 kts 210°
2026-04-15 11:55 47.21845 27.50931 5903 ft 254 kts 177°
2026-04-15 11:55 47.20076 27.51351 6707 ft 259 kts 166°
2026-04-15 11:55 47.18353 27.52129 7472 ft 268 kts 158°
2026-04-15 11:55 47.16480 27.52896 7937 ft 285 kts 180°
2026-04-15 11:56 47.14595 27.52189 8643 ft 287 kts 214°
2026-04-15 11:56 47.13103 27.50254 9480 ft 288 kts 227°
2026-04-15 11:56 47.11664 27.48181 10289 ft 291 kts 226°
2026-04-15 11:56 47.10142 27.46094 10697 ft 310 kts 225°
2026-04-15 11:57 47.08480 27.43905 10947 ft 330 kts 223°
2026-04-15 11:57 47.04923 27.39410 12220 ft 342 kts 223°
2026-04-15 11:57 47.03102 27.37145 12911 ft 345 kts 223°
2026-04-15 11:58 47.01264 27.34856 13611 ft 347 kts 223°
2026-04-15 11:58 46.99368 27.32613 14268 ft 351 kts 218°
2026-04-15 11:58 46.97370 27.30527 14882 ft 354 kts 218°
2026-04-15 11:58 46.95357 27.28424 15488 ft 357 kts 218°
2026-04-15 11:59 46.93331 27.26307 16077 ft 360 kts 218°
2026-04-15 11:59 46.91354 27.24244 16656 ft 363 kts 218°
2026-04-15 11:59 46.89370 27.22177 17232 ft 365 kts 218°
2026-04-15 11:59 46.87282 27.20002 17823 ft 369 kts 218°
2026-04-15 12:00 46.85190 27.17817 18419 ft 372 kts 218°
2026-04-15 12:00 46.83077 27.15610 18945 ft 374 kts 218°
2026-04-15 12:00 46.80945 27.13384 19477 ft 377 kts 218°
2026-04-15 12:00 46.78760 27.11247 20008 ft 382 kts 211°
2026-04-15 12:01 46.76287 27.09756 20534 ft 389 kts 198°
2026-04-15 12:01 46.73590 27.09129 21030 ft 397 kts 184°
2026-04-15 12:01 46.70817 27.09478 21501 ft 405 kts 170°
2026-04-15 12:01 46.68125 27.10793 21952 ft 411 kts 159°
2026-04-15 12:02 46.65484 27.12406 22401 ft 414 kts 160°
2026-04-15 12:02 46.62805 27.14027 22870 ft 417 kts 160°
2026-04-15 12:02 46.60114 27.15649 23322 ft 420 kts 160°
2026-04-15 12:02 46.57400 27.17280 23776 ft 424 kts 160°
2026-04-15 12:03 46.54695 27.18902 24152 ft 427 kts 160°
2026-04-15 12:03 46.51936 27.20553 24538 ft 429 kts 160°
2026-04-15 12:03 46.49164 27.22213 24924 ft 432 kts 160°
2026-04-15 12:03 46.46371 27.23884 25313 ft 434 kts 160°
2026-04-15 12:04 46.43574 27.25557 25686 ft 436 kts 160°
2026-04-15 12:04 46.40757 27.27243 26056 ft 439 kts 160°
2026-04-15 12:04 46.37921 27.28938 26445 ft 441 kts 160°
2026-04-15 12:04 46.35078 27.30634 26813 ft 444 kts 161°
2026-04-15 12:05 46.32212 27.32342 27179 ft 446 kts 161°
2026-04-15 12:05 46.29338 27.34050 27532 ft 448 kts 161°
2026-04-15 12:05 46.26440 27.35770 27883 ft 450 kts 161°
2026-04-15 12:05 46.23532 27.37493 28165 ft 453 kts 161°
2026-04-15 12:06 46.21595 27.38642 28210 ft 453 kts 161°
2026-04-15 12:06 46.15772 27.42098 28220 ft 452 kts 161°
2026-04-15 12:07 46.09947 27.45543 28222 ft 452 kts 161°
2026-04-15 12:07 46.04130 27.48964 28224 ft 452 kts 161°
2026-04-15 12:08 45.98310 27.52378 28223 ft 452 kts 161°
2026-04-15 12:08 45.92490 27.55790 28224 ft 451 kts 161°
2026-04-15 12:09 45.86678 27.59207 28224 ft 451 kts 161°
2026-04-15 12:09 45.80863 27.62619 28219 ft 451 kts 161°
2026-04-15 12:10 45.75037 27.66013 28231 ft 451 kts 161°
2026-04-15 12:10 45.69213 27.69383 28233 ft 451 kts 161°
2026-04-15 12:11 45.63387 27.72748 28224 ft 451 kts 161°
2026-04-15 12:11 45.57555 27.76129 28224 ft 451 kts 161°
2026-04-15 12:12 45.51774 27.79479 28224 ft 451 kts 161°
2026-04-15 12:12 45.45925 27.82852 28230 ft 451 kts 162°
2026-04-15 12:12 45.43005 27.84532 28597 ft 454 kts 162°
2026-04-15 12:13 45.40066 27.86222 28995 ft 456 kts 162°
2026-04-15 12:13 45.37153 27.87890 29364 ft 458 kts 162°
2026-04-15 12:13 45.34184 27.89583 29725 ft 460 kts 162°
2026-04-15 12:13 45.31214 27.91276 30077 ft 462 kts 162°
2026-04-15 12:14 45.28211 27.92992 30398 ft 464 kts 162°
2026-04-15 12:14 45.25202 27.94714 30756 ft 465 kts 162°
2026-04-15 12:14 45.22211 27.96425 31198 ft 463 kts 162°
2026-04-15 12:14 45.19222 27.98131 31630 ft 462 kts 162°
2026-04-15 12:15 45.16244 27.99827 32064 ft 461 kts 162°
2026-04-15 12:15 45.13272 28.01520 32504 ft 460 kts 162°
2026-04-15 12:15 45.10308 28.03207 32948 ft 458 kts 162°
2026-04-15 12:15 45.07356 28.04885 33394 ft 457 kts 162°
2026-04-15 12:16 45.04405 28.06558 33845 ft 455 kts 162°
2026-04-15 12:16 45.01464 28.08224 34286 ft 454 kts 162°
2026-04-15 12:16 44.98536 28.09879 34642 ft 453 kts 162°
2026-04-15 12:16 44.95611 28.11527 34977 ft 452 kts 162°
2026-04-15 12:17 44.92678 28.13178 35296 ft 452 kts 162°
2026-04-15 12:17 44.89757 28.14822 35611 ft 451 kts 162°
2026-04-15 12:17 44.86838 28.16464 35901 ft 451 kts 162°
2026-04-15 12:17 44.83920 28.18108 36192 ft 451 kts 162°
2026-04-15 12:18 44.81041 28.19730 36465 ft 451 kts 162°
2026-04-15 12:18 44.78117 28.21370 36753 ft 451 kts 162°
2026-04-15 12:18 44.75202 28.23003 37019 ft 451 kts 162°
2026-04-15 12:18 44.72277 28.24640 37207 ft 452 kts 162°
2026-04-15 12:19 44.69339 28.26283 37244 ft 456 kts 162°
2026-04-15 12:19 44.63434 28.29585 37250 ft 458 kts 162°
2026-04-15 12:20 44.57507 28.32889 37258 ft 458 kts 162°
2026-04-15 12:20 44.51572 28.36185 37264 ft 458 kts 162°
2026-04-15 12:21 44.45653 28.39471 37271 ft 458 kts 162°
2026-04-15 12:21 44.39719 28.42757 37276 ft 458 kts 162°
2026-04-15 12:22 44.33784 28.46042 37279 ft 458 kts 162°
2026-04-15 12:22 44.27841 28.49316 37280 ft 459 kts 162°
2026-04-15 12:23 44.21905 28.52583 37280 ft 459 kts 162°
2026-04-15 12:23 44.15995 28.55829 37277 ft 459 kts 162°
2026-04-15 12:24 44.10047 28.59090 37276 ft 459 kts 162°
2026-04-15 12:24 44.04101 28.62332 37273 ft 459 kts 162°
2026-04-15 12:25 43.98144 28.65577 37273 ft 459 kts 162°
2026-04-15 12:25 43.92203 28.68811 37273 ft 458 kts 162°
2026-04-15 12:26 43.86287 28.72023 37272 ft 458 kts 163°
2026-04-15 12:26 43.80301 28.75261 37276 ft 458 kts 163°
2026-04-15 12:27 43.74400 28.78451 37275 ft 458 kts 163°
2026-04-15 12:27 43.68299 28.80619 37272 ft 447 kts 180°
2026-04-15 12:28 43.62124 28.80630 37271 ft 443 kts 186°
2026-04-15 12:28 43.55959 28.80454 37271 ft 443 kts 186°
2026-04-15 12:29 43.49799 28.80308 37273 ft 443 kts 186°
2026-04-15 12:29 43.43632 28.80160 37280 ft 442 kts 186°
2026-04-15 12:30 43.37457 28.80004 37280 ft 442 kts 186°
2026-04-15 12:30 43.31303 28.79848 37269 ft 442 kts 186°
2026-04-15 12:31 43.25191 28.79695 37271 ft 441 kts 186°
2026-04-15 12:31 43.19057 28.79530 37283 ft 441 kts 186°
2026-04-15 12:32 43.12921 28.79371 37279 ft 440 kts 186°
2026-04-15 12:32 43.06803 28.79211 37283 ft 440 kts 186°
2026-04-15 12:33 43.00682 28.79056 37277 ft 439 kts 186°
2026-04-15 12:33 42.94572 28.78894 37276 ft 438 kts 186°
2026-04-15 12:34 42.88468 28.78724 37275 ft 438 kts 186°
2026-04-15 12:34 42.82377 28.78557 37272 ft 437 kts 186°
2026-04-15 12:35 42.76285 28.78400 37272 ft 437 kts 186°
2026-04-15 12:35 42.70210 28.78240 37270 ft 436 kts 186°
2026-04-15 12:36 42.64134 28.78080 37269 ft 436 kts 186°
2026-04-15 12:36 42.58069 28.77919 37269 ft 436 kts 186°
2026-04-15 12:37 42.51996 28.77755 37263 ft 435 kts 186°
2026-04-15 12:37 42.45940 28.77593 37265 ft 435 kts 186°
2026-04-15 12:38 42.40906 28.77462 37262 ft 435 kts 187°
2026-04-15 12:38 42.33861 28.77279 37257 ft 435 kts 187°
2026-04-15 12:39 42.28791 28.77143 37257 ft 435 kts 187°
2026-04-15 12:39 42.22726 28.76981 37254 ft 435 kts 187°
2026-04-15 12:40 42.16674 28.76831 37256 ft 435 kts 187°
2026-04-15 12:40 42.10649 28.76686 37252 ft 434 kts 187°
2026-04-15 12:41 42.04591 28.76624 37256 ft 435 kts 185°
2026-04-15 12:41 41.98529 28.76873 37256 ft 436 kts 184°
2026-04-15 12:42 41.92466 28.77208 37247 ft 436 kts 184°
2026-04-15 12:42 41.86401 28.77498 37249 ft 435 kts 185°
2026-04-15 12:43 41.80348 28.77725 37250 ft 434 kts 185°
2026-04-15 12:43 41.74313 28.77933 37244 ft 434 kts 185°
2026-04-15 12:44 41.68263 28.78163 37246 ft 434 kts 185°
2026-04-15 12:44 41.62222 28.78403 37249 ft 434 kts 185°
2026-04-15 12:45 41.56189 28.78647 37245 ft 433 kts 185°
2026-04-15 12:45 41.50162 28.78887 37241 ft 433 kts 185°
2026-04-15 12:46 41.44166 28.79120 37240 ft 433 kts 185°
2026-04-15 12:46 41.38141 28.79348 37237 ft 432 kts 185°
2026-04-15 12:47 41.32137 28.79574 37238 ft 432 kts 185°
2026-04-15 12:47 41.26128 28.79808 37238 ft 431 kts 185°
2026-04-15 12:48 41.20139 28.80047 37240 ft 431 kts 185°
2026-04-15 12:48 41.14146 28.80303 37239 ft 430 kts 185°
2026-04-15 12:49 41.08158 28.80559 37212 ft 429 kts 185°
2026-04-15 12:49 41.02197 28.80805 37218 ft 429 kts 185°
2026-04-15 12:50 40.96225 28.81431 37218 ft 437 kts 174°
2026-04-15 12:50 40.90417 28.84195 37217 ft 446 kts 164°
2026-04-15 12:51 40.84684 28.87340 37210 ft 446 kts 165°
2026-04-15 12:51 40.78944 28.90457 37199 ft 445 kts 165°
2026-04-15 12:52 40.73211 28.93577 37192 ft 445 kts 165°
2026-04-15 12:52 40.67488 28.96688 37182 ft 445 kts 165°
2026-04-15 12:53 40.61795 28.99764 37180 ft 445 kts 165°
2026-04-15 12:53 40.56071 29.02860 37178 ft 444 kts 165°
2026-04-15 12:54 40.50349 29.05940 37171 ft 444 kts 165°
2026-04-15 12:54 40.44630 29.09020 37175 ft 443 kts 165°
2026-04-15 12:55 40.38925 29.12096 37172 ft 443 kts 165°
2026-04-15 12:55 40.33214 29.15160 37168 ft 443 kts 165°
2026-04-15 12:56 40.27503 29.18219 37164 ft 443 kts 165°
2026-04-15 12:56 40.21794 29.21266 37164 ft 442 kts 165°
2026-04-15 12:57 40.16096 29.24308 37160 ft 442 kts 165°
2026-04-15 12:57 40.10401 29.27347 37161 ft 441 kts 165°
2026-04-15 12:58 40.04697 29.30389 37157 ft 442 kts 165°
2026-04-15 12:58 39.99031 29.33395 37151 ft 442 kts 165°
2026-04-15 12:59 39.90467 29.37924 37154 ft 443 kts 165°
2026-04-15 12:59 39.84762 29.41018 37156 ft 444 kts 164°
2026-04-15 13:00 39.79086 29.44171 37154 ft 444 kts 164°
2026-04-15 13:00 39.73411 29.47320 37154 ft 443 kts 164°
2026-04-15 13:01 39.67720 29.50439 37154 ft 443 kts 164°
2026-04-15 13:01 39.62036 29.53516 37153 ft 442 kts 165°
2026-04-15 13:02 39.56314 29.56403 37152 ft 441 kts 166°
2026-04-15 13:02 39.50570 29.59204 37147 ft 440 kts 166°
2026-04-15 13:03 39.44835 29.62021 37156 ft 440 kts 166°
2026-04-15 13:03 39.39112 29.64873 37156 ft 440 kts 166°
2026-04-15 13:04 39.33437 29.67708 37171 ft 439 kts 166°
2026-04-15 13:04 39.27740 29.70531 37174 ft 438 kts 166°
2026-04-15 13:05 39.22054 29.73334 37175 ft 437 kts 166°
2026-04-15 13:05 39.16370 29.76145 37183 ft 437 kts 165°
2026-04-15 13:06 39.10707 29.78954 37174 ft 436 kts 165°
2026-04-15 13:06 39.05043 29.81746 37182 ft 435 kts 165°
2026-04-15 13:07 38.99373 29.84531 37185 ft 435 kts 165°
2026-04-15 13:07 38.93713 29.87301 37180 ft 435 kts 165°
2026-04-15 13:08 38.88057 29.90059 37176 ft 435 kts 165°
2026-04-15 13:08 38.82384 29.92783 37179 ft 435 kts 165°
2026-04-15 13:09 38.76701 29.95467 37178 ft 435 kts 165°
2026-04-15 13:09 38.71018 29.98155 37181 ft 435 kts 165°
2026-04-15 13:10 38.66294 30.00398 37187 ft 436 kts 165°
2026-04-15 13:10 38.60606 30.03092 37189 ft 436 kts 165°
2026-04-15 13:11 38.54924 30.05768 37186 ft 435 kts 165°
2026-04-15 13:11 38.49226 30.08446 37190 ft 436 kts 165°
2026-04-15 13:12 38.43541 30.11121 37194 ft 436 kts 165°
2026-04-15 13:12 38.37834 30.13806 37189 ft 436 kts 164°
2026-04-15 13:13 38.32124 30.16484 37185 ft 437 kts 164°
2026-04-15 13:13 38.26394 30.19122 37183 ft 438 kts 165°
2026-04-15 13:14 38.20653 30.21737 37181 ft 438 kts 165°
2026-04-15 13:14 38.14900 30.24372 37178 ft 439 kts 164°
2026-04-15 13:15 38.09143 30.27017 37173 ft 440 kts 164°
2026-04-15 13:15 38.03368 30.29662 37173 ft 441 kts 164°
2026-04-15 13:16 37.97570 30.32307 37173 ft 443 kts 165°
2026-04-15 13:16 37.91784 30.34930 37164 ft 443 kts 165°
2026-04-15 13:17 37.85976 30.37557 37170 ft 443 kts 165°
2026-04-15 13:17 37.80157 30.40179 37179 ft 443 kts 165°
2026-04-15 13:18 37.74350 30.42807 37181 ft 443 kts 165°
2026-04-15 13:18 37.68544 30.45422 37179 ft 442 kts 165°
2026-04-15 13:19 37.62742 30.48022 37171 ft 442 kts 165°
2026-04-15 13:19 37.56953 30.50617 37161 ft 442 kts 165°
2026-04-15 13:20 37.51150 30.53221 37148 ft 441 kts 165°
2026-04-15 13:20 37.45360 30.55811 37144 ft 441 kts 165°
2026-04-15 13:21 37.39608 30.58372 37137 ft 441 kts 165°
2026-04-15 13:21 37.33798 30.60973 37133 ft 440 kts 165°
2026-04-15 13:22 37.28022 30.63545 37132 ft 440 kts 165°
2026-04-15 13:22 37.22274 30.66091 37123 ft 440 kts 165°
2026-04-15 13:23 37.16492 30.68657 37111 ft 440 kts 165°
2026-04-15 13:23 37.10720 30.71217 37108 ft 440 kts 165°
2026-04-15 13:24 37.04940 30.73774 37106 ft 440 kts 165°
2026-04-15 13:24 36.99154 30.76317 37097 ft 440 kts 165°
2026-04-15 13:25 36.93370 30.78776 37096 ft 437 kts 171°
2026-04-15 13:25 36.87424 30.79620 37098 ft 428 kts 183°
2026-04-15 13:26 36.81460 30.79814 37101 ft 428 kts 183°
2026-04-15 13:26 36.75501 30.80011 37095 ft 428 kts 183°
2026-04-15 13:27 36.69534 30.80222 37092 ft 428 kts 183°
2026-04-15 13:27 36.63561 30.80441 37094 ft 428 kts 183°
2026-04-15 13:28 36.57631 30.80645 37096 ft 428 kts 183°
2026-04-15 13:28 36.51674 30.80844 37092 ft 428 kts 183°
2026-04-15 13:29 36.45719 30.81047 37091 ft 428 kts 183°
2026-04-15 13:29 36.39760 30.81257 37089 ft 427 kts 183°
2026-04-15 13:30 36.33813 30.81458 37090 ft 427 kts 183°
2026-04-15 13:30 36.27861 30.81653 37087 ft 427 kts 183°
2026-04-15 13:31 36.21916 30.81848 37088 ft 427 kts 183°
2026-04-15 13:31 36.15975 30.82049 37085 ft 427 kts 183°
2026-04-15 13:32 36.10031 30.82259 37087 ft 427 kts 183°
2026-04-15 13:32 36.04124 30.82452 37087 ft 426 kts 184°
2026-04-15 13:33 35.98176 30.82744 37086 ft 427 kts 182°
2026-04-15 13:33 35.92228 30.83136 37081 ft 427 kts 182°
2026-04-15 13:34 35.86296 30.83525 37095 ft 427 kts 182°
2026-04-15 13:34 35.80361 30.83884 37081 ft 426 kts 182°
2026-04-15 13:35 35.74436 30.84232 37078 ft 426 kts 182°
2026-04-15 13:35 35.68522 30.84742 37081 ft 430 kts 173°
2026-04-15 13:36 35.65647 30.85876 37073 ft 439 kts 159°
2026-04-15 13:36 35.63031 30.87899 37068 ft 449 kts 144°
2026-04-15 13:36 35.60889 30.90725 37056 ft 458 kts 129°
2026-04-15 13:36 35.59373 30.94196 37050 ft 466 kts 113°
2026-04-15 13:37 35.57426 31.01793 37039 ft 469 kts 110°
2026-04-15 13:37 35.55473 31.09499 37037 ft 470 kts 111°
2026-04-15 13:38 35.53522 31.17128 37042 ft 471 kts 111°
2026-04-15 13:38 35.51546 31.24864 37057 ft 472 kts 111°
2026-04-15 13:39 35.49594 31.32518 37045 ft 473 kts 111°
2026-04-15 13:39 35.47609 31.40259 37052 ft 473 kts 111°
2026-04-15 13:40 35.45623 31.47968 37044 ft 473 kts 111°
2026-04-15 13:40 35.43639 31.55630 37051 ft 474 kts 111°
2026-04-15 13:41 35.41637 31.63352 37035 ft 474 kts 111°
2026-04-15 13:41 35.40637 31.67200 36773 ft 474 kts 111°
2026-04-15 13:41 35.39635 31.71042 36512 ft 473 kts 111°
2026-04-15 13:42 35.38627 31.74897 35834 ft 477 kts 111°
2026-04-15 13:42 35.37613 31.78779 35184 ft 479 kts 111°
2026-04-15 13:42 35.36942 31.81357 34891 ft 476 kts 110°
2026-04-15 13:42 35.35941 31.85212 34345 ft 475 kts 110°
2026-04-15 13:43 35.34936 31.89071 33790 ft 473 kts 110°
2026-04-15 13:43 35.33930 31.92908 33243 ft 471 kts 110°
2026-04-15 13:43 35.32931 31.96716 32704 ft 468 kts 110°
2026-04-15 13:43 35.31936 32.00500 32160 ft 465 kts 110°
2026-04-15 13:44 35.30945 32.04260 31649 ft 462 kts 110°
2026-04-15 13:44 35.29958 32.07995 31135 ft 459 kts 110°
2026-04-15 13:44 35.28983 32.11694 30634 ft 456 kts 110°
2026-04-15 13:44 35.28020 32.15364 30139 ft 452 kts 109°
2026-04-15 13:45 35.27064 32.19037 29590 ft 448 kts 109°
2026-04-15 13:45 35.26124 32.22648 29120 ft 443 kts 109°
2026-04-15 13:45 35.25191 32.26218 28656 ft 438 kts 109°
2026-04-15 13:47 35.18853 32.50257 25529 ft 415 kts 109°
2026-04-15 13:47 35.17963 32.53614 25079 ft 413 kts 109°
2026-04-15 13:47 35.17073 32.56963 24604 ft 413 kts 109°
2026-04-15 13:48 35.16184 32.60300 24128 ft 412 kts 109°
2026-04-15 13:48 35.15295 32.63638 23640 ft 412 kts 109°
2026-04-15 13:48 35.14410 32.66962 23095 ft 412 kts 109°
2026-04-15 13:48 35.13525 32.70275 22629 ft 408 kts 109°
2026-04-15 13:49 35.12649 32.73549 22146 ft 405 kts 109°
2026-04-15 13:49 35.11787 32.76776 21733 ft 401 kts 109°
2026-04-15 13:49 35.10923 32.80016 21195 ft 400 kts 109°
2026-04-15 13:49 35.10067 32.83221 20830 ft 394 kts 109°
2026-04-15 13:50 35.09215 32.86392 20359 ft 392 kts 109°
2026-04-15 13:50 35.08363 32.89542 19899 ft 389 kts 109°
2026-04-15 13:50 35.07515 32.92677 19448 ft 386 kts 109°
2026-04-15 13:50 35.06667 32.95780 19007 ft 384 kts 110°
2026-04-15 13:51 35.05795 32.98858 18556 ft 381 kts 110°
2026-04-15 13:51 35.04916 33.01904 18070 ft 379 kts 110°
2026-04-15 13:51 35.04044 33.04896 17588 ft 377 kts 111°
2026-04-15 13:51 35.03165 33.07904 17059 ft 373 kts 111°
2026-04-15 13:52 35.02300 33.10878 16212 ft 370 kts 111°
2026-04-15 13:52 35.01241 33.13663 15758 ft 353 kts 126°
2026-04-15 13:52 34.99659 33.15870 15508 ft 340 kts 144°
2026-04-15 13:52 34.97704 33.17435 15261 ft 334 kts 154°
2026-04-15 13:53 34.95699 33.18806 14772 ft 328 kts 155°
2026-04-15 13:53 34.93706 33.20149 14158 ft 324 kts 156°
2026-04-15 13:53 34.91739 33.21468 13511 ft 322 kts 156°
2026-04-15 13:53 34.89793 33.22769 12862 ft 316 kts 156°
2026-04-15 13:54 34.87875 33.24056 12279 ft 311 kts 155°
2026-04-15 13:54 34.85985 33.25306 11683 ft 306 kts 159°
2026-04-15 13:54 34.83964 33.25902 11185 ft 297 kts 184°
2026-04-15 13:54 34.81949 33.25562 10852 ft 292 kts 194°
2026-04-15 13:55 34.79967 33.25027 10498 ft 291 kts 195°
2026-04-15 13:55 34.78002 33.24467 10309 ft 286 kts 195°
2026-04-15 13:55 34.76093 33.23915 10046 ft 283 kts 195°
2026-04-15 13:55 34.74178 33.23338 9750 ft 281 kts 199°
2026-04-15 13:56 34.72527 33.22200 9454 ft 276 kts 225°
2026-04-15 13:56 34.71314 33.20400 9085 ft 276 kts 234°
2026-04-15 13:56 34.70189 33.18474 8743 ft 276 kts 235°
2026-04-15 13:56 34.69007 33.16679 8361 ft 277 kts 221°
2026-04-15 13:57 34.67314 33.15579 7932 ft 279 kts 194°
2026-04-15 13:57 34.65377 33.15545 7488 ft 282 kts 166°
2026-04-15 13:57 34.63587 33.16530 7065 ft 284 kts 147°
2026-04-15 13:57 34.61917 33.17837 6710 ft 285 kts 145°
2026-04-15 13:58 34.60259 33.19154 6360 ft 285 kts 145°
2026-04-15 13:58 34.58639 33.20526 6072 ft 283 kts 135°
2026-04-15 13:58 34.57462 33.22403 5951 ft 278 kts 112°
2026-04-15 13:58 34.56988 33.24632 5822 ft 272 kts 89°
2026-04-15 13:59 34.57260 33.26869 5703 ft 268 kts 68°
2026-04-15 13:59 34.58190 33.28797 5574 ft 265 kts 46°
2026-04-15 13:59 34.59603 33.30212 5453 ft 260 kts 34°
2026-04-15 13:59 34.61059 33.31467 5326 ft 251 kts 34°
2026-04-15 14:00 34.62457 33.32677 5201 ft 242 kts 35°
2026-04-15 14:00 34.63802 33.33853 5081 ft 233 kts 35°
2026-04-15 14:00 34.65097 33.34987 4953 ft 225 kts 35°
2026-04-15 14:00 34.66349 33.36080 4849 ft 217 kts 34°
2026-04-15 14:01 34.68570 33.38388 4607 ft 212 kts 49°
2026-04-15 14:01 34.69508 33.39759 4485 ft 211 kts 49°
2026-04-15 14:01 34.70453 33.41135 4351 ft 211 kts 49°
2026-04-15 14:02 34.71394 33.42499 4150 ft 211 kts 49°
2026-04-15 14:02 34.72333 33.43861 3892 ft 208 kts 49°
2026-04-15 14:02 34.73263 33.45201 3622 ft 206 kts 49°
2026-04-15 14:02 34.74243 33.46469 3358 ft 206 kts 45°
2026-04-15 14:03 34.75247 33.47683 3057 ft 200 kts 45°
2026-04-15 14:03 34.76204 33.48823 2810 ft 184 kts 46°
2026-04-15 14:03 34.77086 33.49875 2542 ft 171 kts 46°
2026-04-15 14:03 34.77886 33.50831 2344 ft 150 kts 46°
2026-04-15 14:04 34.78604 33.51695 2124 ft 142 kts 46°
2026-04-15 14:04 34.79287 33.52525 1952 ft 137 kts 46°
2026-04-15 14:04 34.79959 33.53345 1768 ft 136 kts 45°
2026-04-15 14:04 34.80627 33.54158 1595 ft 135 kts 45°
2026-04-15 14:05 34.81293 33.54969 1395 ft 135 kts 46°
2026-04-15 14:05 34.81945 33.55793 1204 ft 135 kts 46°
2026-04-15 14:05 34.82607 33.56593 1090 ft 135 kts 45°
2026-04-15 14:05 34.83279 33.57391 932 ft 135 kts 46°
2026-04-15 14:06 34.83927 33.58209 728 ft 133 kts 46°
2026-04-15 14:06 34.84593 33.58997 567 ft 135 kts 45°
2026-04-15 14:06 34.85245 33.59805 427 ft 134 kts 46°
2026-04-15 14:06 34.85907 33.60598 232 ft 132 kts 44°
2026-04-15 14:07 34.86541 33.61371 55 ft 132 kts 45°
2026-04-15 14:07 34.87134 33.62097 23 ft 102 kts 45°
2026-04-15 14:07 34.87514 33.62560 20 ft 52 kts 45°
2026-04-15 14:07 34.87715 33.62805 22 ft 36 kts 45°
2026-04-15 14:08 34.87823 33.62910 22 ft 18 kts
2026-04-15 14:08 34.87908 33.62842 21 ft 9 kts 316°
2026-04-15 14:08 34.87938 33.62808 21 ft 1 kts 318°
2026-04-15 14:08 34.87952 33.62792 20 ft 4 kts 311°
2026-04-15 14:09 34.87955 33.62748 20 ft 6 kts 248°
2026-04-15 14:09 34.87918 33.62696 20 ft 10 kts 225°
2026-04-15 14:09 34.87864 33.62629 20 ft 12 kts 225°
2026-04-15 14:09 34.87798 33.62550 21 ft 15 kts 224°
2026-04-15 14:10 34.87722 33.62458 20 ft 17 kts 225°
2026-04-15 14:10 34.87634 33.62350 22 ft 19 kts 225°
2026-04-15 14:10 34.87541 33.62237 21 ft 19 kts 225°
2026-04-15 14:10 34.87443 33.62119 20 ft 21 kts 224°
2026-04-15 14:11 34.87334 33.61985 21 ft 23 kts 225°
2026-04-15 14:11 34.87232 33.61860 21 ft 20 kts 225°
2026-04-15 14:11 34.87129 33.61736 22 ft 22 kts 224°
2026-04-15 14:11 34.87017 33.61595 21 ft 24 kts 225°
2026-04-15 14:12 34.86905 33.61459 21 ft 20 kts 224°
2026-04-15 14:12 34.86911 33.61340 20 ft 17 kts 317°
2026-04-15 14:12 34.86987 33.61251 22 ft 16 kts 316°
2026-04-15 14:12 34.87074 33.61143 21 ft 19 kts 315°
2026-04-15 14:13 34.87141 33.61064 20 ft 7 kts 312°
2026-04-15 14:13 34.87123 33.61013 21 ft 8 kts 232°
2026-04-15 14:13 34.87096 33.60980 20 ft 0 kts 225°
2026-04-15 14:13 34.87095 33.60978 20 ft 0 kts 225°
2026-04-15 14:15 34.87098 33.60983 20 ft 0 kts 225°